Regional Weather Roundup
Issued by NWS

Home | Current Version | Previous Version | Graphics & Text | Print | Product List | Glossary Off
Versions: 1 2 3 4 5 6 7 8 9 10 11 12 13 14 15 16 17 18 19 20 21 22 23 24 25 26 27 28 29 30 31 32 33 34 35 36 37 38 39 40 41 42 43 44 45 46 47 48 49 50

000
ASUS43 KTOP 280059
RWRKS

WEATHER ROUNDUP FOR KANSAS
NATIONAL WEATHER SERVICE GOODLAND KS
800 PM CDT SAT MAY 27 2017

NOTE:  "FAIR" INDICATES FEW OR NO CLOUDS BELOW 12,000 FEET WITH NO
SIGNIFICANT WEATHER AND/OR OBSTRUCTIONS TO VISIBILITY.

KSZ001>006-013>018-027>032-041>047-280200-
NORTHWEST KANSAS

CITY           SKY/WX    TMP DP  RH WIND       PRES   REMARKS
GOODLAND       CLOUDY    56  51  84 W10       30.08F
HAYS           CLOUDY    69  57  65 N14       29.95R
HILL CITY      CLOUDY    68  56  65 N13       29.99R
RUSSELL        MOCLDY    69  58  67 N8        29.91S
$$

KSZ061>065-074>080-084>089-280200-
SOUTHWEST KANSAS

CITY           SKY/WX    TMP DP  RH WIND       PRES   REMARKS
DODGE CITY     MOCLDY    70  56  61 N17G26    29.96R
ELKHART          N/A     61  42  49 MISG        N/A
GARDEN CITY    CLOUDY    67  52  58 N22G31    30.01R
GREAT BEND     CLOUDY    70  60  70 N14G20    29.92R
LIBERAL        PTCLDY    70  55  59 N18       29.96R
$$

KSZ066>073-081>083-090>101-280200-
SOUTHEAST KANSAS

CITY           SKY/WX    TMP DP  RH WIND       PRES   REMARKS
CHANUTE        CLOUDY    74  61  63 NE16      29.79R
COFFEYVILLE    CLOUDY    79  72  79 NE10      29.74R
HUTCHINSON     MOCLDY    72  61  68 N12       29.87R
MEDICINE LODGE   N/A     76  60  57 N8        29.85R
NEWTON         PTCLDY    72  63  73 N13       29.86R
PARSONS        CLOUDY    78  64  61 N15G24    29.78R
WICHITA INTL   MOCLDY    77  62  59 N15       29.82S
WICHITA JABRA  CLEAR     74  62  66 N16       29.83R
WINFIELD       CLEAR     76  62  62 N13G22    29.81R
$$

KSZ007>012-019>026-033>040-048>060-102>105-280200-
NORTHEAST KANSAS

CITY           SKY/WX    TMP DP  RH WIND       PRES   REMARKS
CONCORDIA      PTCLDY    70  61  73 NE7       29.89S
EMPORIA        CLEAR     74  62  66 N8        29.81S
LAWRENCE       CLEAR     73  65  75 N9        29.82R
MANHATTAN      CLEAR     71  63  75 N3        29.85R
OLATHE IND     PTCLDY    70  61  73 NE3       29.84R
OLATHE EXE     MOCLDY    69  62  78 E3        29.84R
SALINA         MOCLDY    74  63  68 N12       29.88R
TOPEKA BILLARD CLEAR     72  64  76 N10       29.82R
TOPEKA FORBES  CLEAR     73  64  73 N13       29.82R
$$




USA.gov is the U.S. government's official web portal to all federal, state and local government web resources and services.